Orlando International, FL

1:37 AM EDT on April 24, 2018 (GMT -0400)
Orlando International

Weather History for KMCO - March, 2013

Change the Weather History Date:

Friday, March 22, 2013

  Actual Average Record
Temperature  
Mean Temperature 64 °F 68 °F  
Max Temperature 80 °F 79 °F 94 °F (1907)
Min Temperature 48 °F 57 °F 35 °F (1906)
Degree Days  
Heating Degree Days 1 1  
Month to date heating degree days 111 50  
Since 1 July heating degree days 423 549  
Cooling Degree Days 0 4  
Month to date cooling degree days 25 79  
Year to date cooling degree days 225 183  
Growing Degree Days 14 (Base 50)    
Moisture  
Dew Point 50 °F    
Average Humidity 64    
Maximum Humidity 100    
Minimum Humidity 27    
Precipitation  
Precipitation 0.22 in 0.13 in 3.11 in (1974)
Month to date precipitation 0.56 2.60  
Year to date precipitation 1.47 7.33  
Sea Level Pressure  
Sea Level Pressure 29.98 in    
Wind  
Wind Speed 7 mph (ENE)    
Max Wind Speed 16 mph    
Max Gust Speed 21 mph    
Visibility 10 miles    
Events Rain , Thunderstorm    
T = Trace of Precipitation, MM = Missing Value Source: NWS Daily Summary

Daily Weather History Graph

Daily Weather History Graph

Search for Another Location

Airport or City:

Astronomy

Mar. 22, 2013 Rise Set
Actual Time 7:26 AM EDT 7:37 PM EDT
Civil Twilight 7:03 AM EDT 8:01 PM EDT
Nautical Twilight 6:35 AM EDT 8:28 PM EDT
Astronomical Twilight 6:08 AM EDT 8:56 PM EDT
Moon 3:23 PM EDT (3/22) 4:05 AM EDT (3/22)
Length of Visible Light 12h 58m
Length of Day
12h 11m
Waxing Gibbous, 77% of the Moon is Illuminated
Mar 22
Waxing Gibbous
Mar 27
Full
Apr 3
Last Quarter
Apr 10
New
Apr 18
First Quarter

Hourly Weather History & Observations

Time (EDT) Temp. Dew Point Humidity Pressure Visibility Wind Dir Wind Speed Gust Speed Precip Events Conditions
12:53 AM 53.1 °F 41.0 °F 64% 29.97 in 10.0 mi West 3.5 mph - N/A   Clear
1:53 AM 52.0 °F 42.1 °F 69% 29.96 in 10.0 mi NNW 4.6 mph - N/A   Clear
2:53 AM 50.0 °F 43.0 °F 77% 29.95 in 10.0 mi North 3.5 mph - N/A   Partly Cloudy
3:53 AM 48.9 °F 43.0 °F 80% 29.95 in 10.0 mi NNW 3.5 mph - N/A   Partly Cloudy
4:53 AM 48.9 °F 44.1 °F 83% 29.95 in 10.0 mi North 4.6 mph - N/A   Partly Cloudy
5:53 AM 50.0 °F 45.0 °F 83% 29.96 in 10.0 mi North 4.6 mph - N/A   Scattered Clouds
6:53 AM 48.9 °F 43.0 °F 80% 29.98 in 10.0 mi North 4.6 mph - N/A   Scattered Clouds
7:53 AM 52.0 °F 43.0 °F 71% 30.02 in 10.0 mi North 10.4 mph - N/A   Scattered Clouds
8:53 AM 57.0 °F 44.1 °F 62% 30.02 in 10.0 mi NNE 9.2 mph - N/A   Mostly Cloudy
9:53 AM 63.0 °F 45.0 °F 52% 30.04 in 10.0 mi NE 8.1 mph - N/A   Mostly Cloudy
10:53 AM 69.1 °F 43.0 °F 39% 30.04 in 10.0 mi ENE 9.2 mph - N/A   Scattered Clouds
11:53 AM 72.0 °F 36.0 °F 27% 30.02 in 10.0 mi ESE 4.6 mph - N/A   Scattered Clouds
12:53 PM 73.9 °F 42.1 °F 32% 30.00 in 10.0 mi Variable 6.9 mph - N/A   Scattered Clouds
1:53 PM 75.9 °F 48.0 °F 37% 29.97 in 10.0 mi South 12.7 mph 20.7 mph N/A   Mostly Cloudy
2:53 PM 75.9 °F 50.0 °F 40% 29.96 in 10.0 mi SSW 10.4 mph - N/A   Mostly Cloudy
3:53 PM 80.1 °F 50.0 °F 35% 29.93 in 10.0 mi South 11.5 mph 18.4 mph N/A   Mostly Cloudy
4:53 PM 77.0 °F 52.0 °F 42% 29.91 in 10.0 mi South 6.9 mph - 0.00 in Rain Light Rain
5:35 PM 68.0 °F 59.0 °F 73% 29.94 in 5.0 mi East 5.8 mph - 0.02 in Rain , Thunderstorm Light Thunderstorms and Rain
5:53 PM 64.9 °F 61.0 °F 87% 29.95 in 10.0 mi East 8.1 mph - 0.16 in Rain , Thunderstorm Light Thunderstorms and Rain
6:05 PM 64.4 °F 62.6 °F 94% 29.95 in 10.0 mi East 10.4 mph - 0.00 in Rain Light Rain
6:53 PM 64.9 °F 59.0 °F 81% 29.96 in 10.0 mi East 8.1 mph - 0.00 in Rain Light Rain
7:53 PM 64.0 °F 61.0 °F 90% 29.98 in 10.0 mi ENE 8.1 mph - 0.05 in   Overcast
8:53 PM 63.0 °F 61.0 °F 93% 29.99 in 10.0 mi East 4.6 mph - N/A   Overcast
9:53 PM 64.0 °F 62.1 °F 93% 30.00 in 10.0 mi East 4.6 mph - 0.00 in Rain Light Rain
10:53 PM 63.0 °F 61.0 °F 93% 30.01 in 10.0 mi East 4.6 mph - 0.00 in   Mostly Cloudy
11:53 PM 63.0 °F 62.1 °F 97% 30.01 in 10.0 mi Calm Calm - 0.01 in   Overcast